Regional Weather Roundup
Issued by NWS Newport/Morehead, NC

Current Version | Previous Version | Graphics & Text | Print | Product List | Glossary On
Versions: 1 2 3 4 5 6 7 8 9 10 11 12 13 14 15 16 17 18 19 20 21 22 23 24 25 26 27 28 29 30 31 32 33 34 35 36 37 38 39 40 41 42 43 44 45 46 47 48 49 50
194 ASUS42 KMHX 262013 RWRMHX WEATHER ROUNDUP FOR EASTERN NORTH CAROLINA NATIONAL WEATHER SERVICE NEWPORT/MOREHEAD CITY NC 400 PM EDT TUE SEP 26 2017 NOTE: "FAIR" INDICATES FEW OR NO CLOUDS BELOW 12,000 FEET WITH NO SIGNIFICANT WEATHER AND/OR OBSTRUCTIONS TO VISIBILITY NCZ015>017-031-032-045>047-102-103-262100- NORTH COAST CITY SKY/WX TMP DP RH WIND PRES REMARKS EDENTON PTSUNNY 82 73 75 N16G29 29.78F ELIZABETH CITY MOSUNNY 80 73 79 N21G29 29.77S KITTY HAWK NOT AVBL MANTEO CLOUDY 77 71 82 NE23G33 29.71S $$ NCZ045>047-081-094-103-104-262100- CENTRAL COAST CITY SKY/WX TMP DP RH WIND PRES REMARKS FRISCO LGT RAIN 77 75 93 N23G39 29.61F $$ NCZ095-097-098-100-101-262100- SOUTHERN COAST CITY SKY/WX TMP DP RH WIND PRES REMARKS BEAUFORT MOSUNNY 84 73 69 N24G41 29.67S CEDAR ISLAND NOT AVBL JACKSONVILLE LGT RAIN 83 74 74 N16 29.74S PINEY ISLAND N/A N/A N/A N/A N23G37 29.67 WILMINGTON PTSUNNY 84 70 62 N16G28 29.76F $$ NCZ011>013-027>030-043-044-078>080-089-090>093-098-262100- COASTAL PLAIN CITY SKY/WX TMP DP RH WIND PRES REMARKS AHOSKIE LGT RAIN 76 73 90 N10G17 29.83S CLINTON MOSUNNY 84 72 67 N10G16 29.82F ELIZABETHTOWN NOT AVBL GOLDSBORO PTSUNNY 82 74 75 N14G25 29.81S GREENVILLE PTSUNNY 82 72 69 N15G23 29.81F HAVELOCK PTSUNNY 86 73 65 N21 29.71F KENANSVILLE CLOUDY 82 70 65 N15G21 29.81S KINSTON PTSUNNY 81 72 74 N14G20 29.81R NEW BERN CLOUDY 84 72 67 N17G24 29.74S RICHLANDS CLOUDY 82 73 74 N9 29.77S ROCKY MOUNT PTSUNNY 82 72 71 N20 29.85R WASHINGTON CLOUDY 83 72 69 N16G29 29.76S WHITEVILLE SUNNY 86 70 59 N7 29.80F $$ AMZ130-135-150-152-154-156-158-170-250-252-270-ANZ085-086-088-633-658-670-262100- MARINE OBSERVATIONS STATION/POSITION TIME TEMP WIND PRES WAVE SWELL AIR SEA DIR/SP/G HT/PER HT/PER (UTC) (F) (DEG/KT/KT) (MB) (FT/S) (FT/S) CHESAPEAKE LIGHT NOT AVBL 64 E VA BEACH 1950 74 69 30/ 23/ 29 1006.1 20/15 18/15 DUCK 1936 75 76 20/ 28/ 36 1006.2 2 E DUCK 2000 76 N/A 11/14 8/14 OREGON INLET 1948 10/ 22/ 32 N/A 13E OREGON INLT 1948 75 N/A 18/13 18/13 HATTERAS CG 1936 76 77 10/ 31/ 38 1002.6 DIAMOND BUOY 1950 77 82 360/ 33/ 41 999.1 17/13 11/13 CAPE LOOKOUT 2000 82 360/ 27/ 32 1003.8 BEAUFORT LAB 1936 82 74 10/ 20/ 41 1004.2 30 SE NEW RVR IN 1908 81 360/ 17/ 23 1005.2 30 SE NEW RVR IN NOT AVBL 27 SE WRIGHTSVLE 1908 80 79 300/ 19/ 25 1006.0 5 SE WRIGHTSVLE 1908 80 78 330/ 14/ 25 1007.2 225 S CAPE HAT 1950 80 80 290/ 27/ 37 1001.8 15/11 5/14 41 SE CHARLESTON 1950 78 81 340/ 8/ 10 1009.0 5/ 7 5/ 7 $$

USA.gov is the U.S. government's official web portal to all federal, state and local government web resources and services.